DMSP 5D-3 F16 (USA 172) 1 28054U 03048A 26126.85773286 .00000022 00000+0 35192-4 0 9994 2 28054 98.9919 150.4074 0005900 262.9980 175.0419 14.14479039163646 METEOSAT-9 (MSG-2) 1 28912U 05049B 26125.84362170 .00000131 00000+0 00000+0 0 9990 2 28912 9.2674 54.5755 0000892 25.8122 132.8584 1.00279737 6577 DMSP 5D-3 F17 (USA 191) 1 29522U 06050A 26126.87414700 .00000070 00000+0 58344-4 0 9993 2 29522 98.7391 134.2885 0010275 167.3029 192.8405 14.14985722 6584 FENGYUN 3A 1 32958U 08026A 26126.81429480 .00000092 00000+0 64036-4 0 9999 2 32958 98.6865 68.4265 0007643 244.6392 115.3993 14.19562422929537 GOES 14 1 35491U 09033A 26126.88279566 -.00000090 00000+0 00000+0 0 9993 2 35491 1.5837 83.5150 0002009 332.1622 291.8576 1.00118289 6172 DMSP 5D-3 F18 (USA 210) 1 35951U 09057A 26126.84262461 .00000243 00000+0 14909-3 0 9998 2 35951 98.9024 107.7070 0011398 14.7014 345.4488 14.14872763853744 EWS-G2 (GOES 15) 1 36411U 10008A 26126.88055463 .00000030 00000+0 00000+0 0 9991 2 36411 1.1668 83.5777 0004674 25.6584 135.8008 1.00273788 59226 COMS 1 1 36744U 10032A 26126.85791859 -.00000335 00000+0 00000+0 0 9999 2 36744 4.7000 75.8985 0001177 341.0982 244.7123 1.00270926 50670 FENGYUN 3B 1 37214U 10059A 26126.87121704 -.00000299 00000+0 -13118-3 0 9997 2 37214 98.9649 172.7032 0021210 305.8973 159.5562 14.14830245801584 SUOMI NPP 1 37849U 11061A 26126.82411602 .00000071 00000+0 54931-4 0 9994 2 37849 98.7936 67.9879 0002864 85.0077 275.1426 14.19508437752573 METEOSAT-10 (MSG-3) 1 38552U 12035B 26126.61884278 .00000002 00000+0 00000+0 0 9995 2 38552 4.5740 61.1930 0002096 325.6926 60.4637 1.00270436 50447 METOP-B 1 38771U 12049A 26126.79934920 .00000096 00000+0 63718-4 0 9995 2 38771 98.6534 179.1177 0003575 103.9277 256.2298 14.21436422707383 INSAT-3D 1 39216U 13038B 26126.87342639 -.00000330 00000+0 00000+0 0 9990 2 39216 1.8194 83.0375 0001226 294.4869 291.1634 1.00272663 46660 FENGYUN 3C 1 39260U 13052A 26126.91164089 .00000076 00000+0 59661-4 0 9999 2 39260 98.4960 102.6883 0015370 138.5947 221.6396 14.15745306652726 METEOR-M 2 1 40069U 14037A 26126.89684499 .00000227 00000+0 12299-3 0 9994 2 40069 98.5098 104.1041 0006174 146.0818 214.0756 14.21450910613458 HIMAWARI-8 1 40267U 14060A 26126.83973811 -.00000267 00000+0 00000+0 0 9991 2 40267 0.0286 86.6514 0001036 340.2628 240.7680 1.00272393 42349 FENGYUN 2G 1 40367U 14090A 26126.90531088 -.00000294 00000+0 00000+0 0 9999 2 40367 5.5355 73.3020 0002600 135.7798 81.3584 1.00269158 41587 METEOSAT-11 (MSG-4) 1 40732U 15034A 26126.83451847 .00000070 00000+0 00000+0 0 9991 2 40732 3.0992 71.3257 0001567 348.1711 114.9719 1.00267316 6802 ELEKTRO-L 2 1 41105U 15074A 26126.68717914 -.00000109 00000+0 00000+0 0 9997 2 41105 6.5912 71.0234 0001891 271.7127 114.6616 1.00271219 38097 INSAT-3DR 1 41752U 16054A 26126.88459227 -.00000070 00000+0 00000+0 0 9993 2 41752 0.1388 87.3162 0010974 193.6881 336.2003 1.00272730 35406 HIMAWARI-9 1 41836U 16064A 26126.83973809 -.00000267 00000+0 00000+0 0 9997 2 41836 0.0376 126.5656 0001383 309.1594 232.0569 1.00272426 34791 GOES 16 1 41866U 16071A 26126.66932573 -.00000083 00000+0 00000+0 0 9998 2 41866 0.2364 85.6327 0001141 275.3477 359.7965 1.00272832 34685 FENGYUN 4A 1 41882U 16077A 26126.85713859 -.00000348 00000+0 00000+0 0 9991 2 41882 2.2186 80.7048 0008118 143.9684 72.3533 1.00274695 34514 CYGFM05 1 41884U 16078A 26126.46864033 .00018363 00000+0 26594-3 0 9997 2 41884 34.9558 176.4472 0006933 125.0057 235.1318 15.54899707522257 CYGFM04 1 41885U 16078B 26126.43405679 .00024008 00000+0 29507-3 0 9992 2 41885 34.9316 146.3517 0006926 171.4727 188.6117 15.59241848522472 CYGFM02 1 41886U 16078C 26126.44254008 .00026762 00000+0 29930-3 0 9991 2 41886 34.9396 141.9191 0008100 171.8283 188.2576 15.61667655522631 CYGFM01 1 41887U 16078D 26126.53889947 .00019282 00000+0 27285-3 0 9998 2 41887 34.9389 177.3652 0006567 119.2518 240.8863 15.55522162522215 CYGFM08 1 41888U 16078E 26126.50184270 .00021809 00000+0 28188-3 0 9994 2 41888 34.9421 158.2242 0008447 150.3799 209.7405 15.57914015522469 CYGFM07 1 41890U 16078G 26126.39947386 .00022283 00000+0 28719-3 0 9996 2 41890 34.9436 147.2802 0007327 169.3914 190.6967 15.57996807522474 CYGFM03 1 41891U 16078H 26126.43446414 .00021968 00000+0 28319-3 0 9993 2 41891 34.9393 148.9994 0006355 158.7266 201.3724 15.58000287522457 FENGYUN 3D 1 43010U 17072A 26126.84899579 -.00000006 00000+0 19114-4 0 9997 2 43010 99.0110 100.5310 0001878 131.9638 228.1697 14.19730078439129 NOAA 20 (JPSS-1) 1 43013U 17073A 26126.83739664 .00000057 00000+0 47757-4 0 9997 2 43013 98.7755 66.6715 0001903 58.6487 301.4875 14.19549868438600 GOES 17 1 43226U 18022A 26126.81493175 -.00000175 00000+0 00000+0 0 9997 2 43226 0.8319 86.2796 0000756 317.7101 24.5705 1.00271855 30001 FENGYUN 2H 1 43491U 18050A 26126.89788661 -.00000122 00000+0 00000+0 0 9999 2 43491 2.9257 79.5376 0001252 142.8797 44.9401 1.00274498 29023 METOP-C 1 43689U 18087A 26126.82085875 .00000106 00000+0 68477-4 0 9996 2 43689 98.6668 187.1749 0000340 57.2334 302.8876 14.21500775388952 GEO-KOMPSAT-2A 1 43823U 18100A 26126.87244309 -.00000336 00000+0 00000+0 0 9995 2 43823 0.0445 95.1692 0002323 339.0510 232.8600 1.00271033 27218 METEOR-M2 2 1 44387U 19038A 26126.86950767 .00000158 00000+0 88282-4 0 9997 2 44387 98.9139 113.5496 0002105 111.6616 248.4787 14.24354591355412 ARKTIKA-M 1 1 47719U 21016A 26126.12455266 -.00000147 00000+0 00000+0 0 9997 2 47719 63.2266 63.7141 7272544 269.7355 14.8736 2.00605981 37948 FENGYUN 3E 1 49008U 21062A 26126.90801252 .00000090 00000+0 63031-4 0 9991 2 49008 98.7503 130.7759 0001388 162.0401 198.0825 14.19900969250728 GOES 18 1 51850U 22021A 26126.73430991 .00000104 00000+0 00000+0 0 9992 2 51850 0.0384 82.6098 0000655 16.3097 253.0311 1.00271490 6174 NOAA 21 (JPSS-2) 1 54234U 22150A 26126.80110433 .00000073 00000+0 55335-4 0 9999 2 54234 98.7043 66.2895 0001259 358.3293 1.7879 14.19557937180672 METEOSAT-12 (MTG-I1) 1 54743U 22170C 26126.83252514 .00000000 00000+0 00000+0 0 9990 2 54743 0.7349 23.9283 0001008 1.7859 138.3172 1.00271906 12569 TIANMU-1 03 1 55973U 23039A 26126.83784225 .00013240 00000+0 27200-3 0 9995 2 55973 97.5228 299.2305 0002075 224.3171 135.7911 15.46130864174443 TIANMU-1 04 1 55974U 23039B 26126.84269553 .00013619 00000+0 27442-3 0 9997 2 55974 97.5162 298.3882 0002740 223.0064 137.0972 15.46687109174459 TIANMU-1 05 1 55975U 23039C 26126.81673824 .00013468 00000+0 27727-3 0 9993 2 55975 97.5208 298.8387 0001514 259.5689 100.5390 15.46065165174429 TIANMU-1 06 1 55976U 23039D 26126.84375729 .00013410 00000+0 27099-3 0 9999 2 55976 97.5217 299.4618 0001866 248.8448 111.2602 15.46608951174452 FENGYUN 3G 1 56232U 23055A 26126.67994031 .00020910 00000+0 33581-3 0 9993 2 56232 49.9917 200.1330 0006143 5.9001 354.2037 15.52925116173559 METEOR-M2 3 1 57166U 23091A 26126.85445576 -.00000001 00000+0 18221-4 0 9990 2 57166 98.6109 182.6717 0002820 298.4061 61.6833 14.24043271148631 TIANMU-1 07 1 57399U 23101A 26126.81980164 .00005909 00000+0 20990-3 0 9999 2 57399 97.2619 178.4462 0000438 292.7510 67.3684 15.29394184155328 TIANMU-1 08 1 57400U 23101B 26126.85253772 .00004828 00000+0 17184-3 0 9994 2 57400 97.2607 178.2534 0002188 251.3693 108.7310 15.29421528155322 TIANMU-1 09 1 57401U 23101C 26126.83618525 .00005687 00000+0 20184-3 0 9992 2 57401 97.2566 177.6759 0000976 300.5365 59.5779 15.29435065155328 TIANMU-1 10 1 57402U 23101D 26126.86864473 .00005760 00000+0 20418-3 0 9993 2 57402 97.2644 178.7154 0002298 279.3403 80.7577 15.29470458155329 FENGYUN 3F 1 57490U 23111A 26126.82237758 .00000054 00000+0 45897-4 0 9997 2 57490 98.6846 197.5982 0001102 116.1341 243.9949 14.19931877142995 ARKTIKA-M 2 1 58584U 23198A 26126.38721155 .00000160 00000+0 00000+0 0 9997 2 58584 63.2195 159.0205 6891147 267.5568 18.8210 2.00595048 17488 TIANMU-1 11 1 58645U 23205A 26126.89430764 .00004830 00000+0 18716-3 0 9998 2 58645 97.3474 149.1088 0010198 141.6897 218.5068 15.26571437131220 TIANMU-1 12 1 58646U 23205B 26126.86352274 .00005272 00000+0 20444-3 0 9997 2 58646 97.3463 148.8430 0008858 126.1315 234.0745 15.26521829131202 TIANMU-1 13 1 58647U 23205C 26126.89243552 .00005120 00000+0 19825-3 0 9992 2 58647 97.3491 149.1364 0009413 111.2236 249.0009 15.26577012131203 TIANMU-1 14 1 58648U 23205D 26126.87829596 .00005245 00000+0 20350-3 0 9992 2 58648 97.3426 148.3380 0010051 113.8098 246.4196 15.26492075131208 TIANMU-1 19 1 58660U 23208A 26126.85589083 .00007531 00000+0 25429-3 0 9993 2 58660 97.4458 242.9771 0006473 102.7951 257.4014 15.30948942131004 TIANMU-1 20 1 58661U 23208B 26126.86050360 .00007684 00000+0 24990-3 0 9997 2 58661 97.4399 243.5744 0008592 109.8730 250.3438 15.32139036131092 TIANMU-1 21 1 58662U 23208C 26126.84426869 .00008585 00000+0 26032-3 0 9997 2 58662 97.4457 246.0642 0008540 104.3064 255.9127 15.34340931131227 TIANMU-1 22 1 58663U 23208D 26126.82440620 .00006694 00000+0 22969-3 0 9991 2 58663 97.4454 242.9150 0005121 120.1935 239.9813 15.30477420131009 TIANMU-1 15 1 58700U 24004A 26126.87472065 .00005540 00000+0 21431-3 0 9993 2 58700 97.4678 313.0695 0008269 127.7399 232.4590 15.26593944129479 TIANMU-1 16 1 58701U 24004B 26126.46352443 .00005672 00000+0 21919-3 0 9993 2 58701 97.4623 311.9417 0006679 129.8000 230.3828 15.26627497129410 TIANMU-1 17 1 58702U 24004C 26126.84201660 .00005613 00000+0 21891-3 0 9994 2 58702 97.4653 312.7896 0006613 133.3291 226.8500 15.26324028129460 TIANMU-1 18 1 58703U 24004D 26126.82546198 .00005106 00000+0 19790-3 0 9993 2 58703 97.4671 313.0025 0005315 126.5118 233.6610 15.26588028129469 INSAT-3DS 1 58990U 24033A 26126.84890522 -.00000148 00000+0 00000+0 0 9990 2 58990 0.0317 108.7764 0001814 303.9633 199.6447 1.00269849 46658 METEOR-M2 4 1 59051U 24039A 26126.89260352 .00000009 00000+0 23954-4 0 9995 2 59051 98.6988 86.7165 0006019 294.1146 65.9402 14.22425185113393 GOES 19 1 60133U 24119A 26126.81770508 -.00000241 00000+0 00000+0 0 9999 2 60133 0.0052 17.6138 0000877 82.8210 343.4298 1.00271664 6546 FENGYUN 3H 1 65815U 25219A 26126.81820149 .00000063 00000+0 50002-4 0 9993 2 65815 98.6752 68.3969 0001254 105.9495 254.1820 14.19912960 31514